Regional Weather Roundup
Issued by NWS Grand Forks, ND

Home | Current Version | Previous Version | Graphics & Text | Print | Product List | Glossary On
Versions: 1 2 3 4 5 6 7 8 9 10 11 12 13 14 15 16 17 18 19 20 21 22 23 24 25 26 27 28 29 30 31 32 33 34 35 36 37 38 39 40 41 42 43 44 45 46 47 48 49 50
000
ASUS43 KFGF 220910
RWRFGF
PRAIRIE TO PINES  WEATHER ROUNDUP
NATIONAL WEATHER SERVICE EASTERN NORTH DAKOTA/GRAND FORKS ND
300 AM CST MON JAN 22 2018

 **SATELLITE DATA USED TO AUGMENT SKY COVER AT AUTOMATED STATIONS**
 *****  WEATHER ACROSS EASTERN NORTH DAKOTA  *****

CITY           SKY/WX    TMP DP  RH WIND       PRES   REMARKS
GRAND FORKS    CLOUDY    23  21  92 N7        30.09S WCI  15
GRAND FRKS AFB CLOUDY   N/A N/A N/A N6        30.10R
DEVILS LAKE    FOG       21  21 100 NE3       30.06S VSB 3/4
FARGO          CLOUDY    25  23  92 NE15      30.04R WCI  13
WAHPETON ARPT  CLOUDY    27  23  86 N10       30.01R WCI  17
$$

 ***** WEATHER ACROSS CENTRAL AND WESTERN NORTH DAKOTA  *****

CITY           SKY/WX    TMP DP  RH WIND       PRES   REMARKS
BISMARCK       FOG       18  17  96 CALM      30.02F VSB 1/4
MINOT          FAIR      12   8  84 CALM      30.00S FOG
JAMESTOWN      CLOUDY    24  21  88 NE10      30.02R WCI  14
MINOT AFB      FAIR       7   3  86 CALM      30.00R
GARRISON         N/A      5   2  87 N3        30.00S
WILLISTON      FAIR       5   2  87 CALM      30.00F
DICKINSON      FAIR      16  12  84 W12       29.95S WCI   3
HETTINGER      FAIR      11   8  88 NW6       30.00S WCI   1
$$

 *****  OTHER AIRPORT OBSERVATIONS IN OUR AREA  *****

CITY           SKY/WX    TMP DP  RH WIND       PRES   REMARKS
WALHALLA       FAIR      21  21 100 CALM      30.10S
GRAFTON AIRPOR NOT AVBL
VALLEY CITY AR NOT AVBL
CANDO          CLOUDY    23  23 100 CALM      30.07S
CAVALIER APRT    N/A     21  21 100 CALM      30.11R
GWINNER          N/A     23  23 100 NE14      30.02R WCI  11
SHEYENNE NWR     N/A     23  23 100 NE10      29.95S WCI  12
ROLLA          FOG       19  19 100 CALM      30.04S VSB 1/4
 ***** THE ABOVE OBSERVATIONS ARE NON NWS ARE NOT QUALITY
       CONTROLLED AND MAY MIS-REPORT RAIN FOR SNOW...
$$

  *****  WEATHER ACROSS NORTHERN MINNESOTA  *****

CITY           SKY/WX    TMP DP  RH WIND       PRES   REMARKS
FLAG ISLAND    CLOUDY    19  18  93 NE8       30.10S WCI   9
WARROAD        FOG       25  19  80 N3        30.09F VSB 1
ROSEAU         CLOUDY    23  19  86 N3        30.09F
HALLOCK        CLOUDY    21  19  93 CALM      30.11S
THF RVR FALLS  CLOUDY    23  21  92 NE10      30.08R WCI  12
BAUDETTE       CLOUDY    24  22  91 N7        30.07R WCI  16
WASKISH        CLOUDY    27  25  93 NE3       30.05S
CROOKSTON      CLOUDY    25  21  86 NE8       30.08S WCI  16
STEPHEN NDAWN    N/A     21  19  93 VRB5        N/A  WCI  15
GREENBUSH NDAW   N/A     21  19  93 NE3         N/A
$$
  *****  WEATHER ACROSS CENTRAL AND WEST MINNESOTA  *****

CITY           SKY/WX    TMP DP  RH WIND       PRES   REMARKS
FOSSTON        CLOUDY    23  21  93 NE6       30.03S WCI  16
BEMIDJI        CLOUDY    25  24  97 NE6       30.02R WCI  18
PARK RAPIDS    CLOUDY    25  22  88 E12       30.00R WCI  14
ELBOW LAKE     CLOUDY    24  24  99 E12       29.97F FOG     WCI  13
WADENA         CLOUDY    25  25 100 NE10      29.99S FOG     WCI  15
DETROIT LAKES  CLOUDY    27  27 100 NE12      30.00S WCI  16
MOORHEAD       CLOUDY    25  21  86 N10       30.04R WCI  15
FERGUS FALLS   CLOUDY    25  25 100 NE7       29.99R WCI  17
MORRIS MN      CLOUDY    27  25  93 N14       29.95S FOG     WCI  15
STAPLES        CLOUDY    25  25 100 N9        29.98F FOG     WCI  15
$$
  *****  WEATHER ELSEWHERE ACROSS MINNESOTA  *****

CITY           SKY/WX    TMP DP  RH WIND       PRES   REMARKS
DULUTH         LGT SNOW  27  25  92 E17G25    30.02R VSB 3/4 WCI  14
INTRNTL FALLS  CLOUDY    22  19  89 E7        30.08R WCI  13
ELY            NOT AVBL
CLOQUET        LGT SNOW  27  25  93 E16G23    30.01F WCI  14
WHEATON        CLOUDY    27  23  86 N9        30.01S WCI  17
BRAINERD       CLOUDY    29  25  85 NE12      29.99S WCI  19
HIBBING        CLOUDY    25  24  96 E7        30.04R WCI  17
ALEXANDRIA     CLOUDY    25  24  96 NE15G22   29.95S FOG     WCI  13
SAINT CLOUD    CLOUDY    29  28  96 NE10      29.93F WCI  20
MINNEAPOLIS    CLOUDY    33  30  88 NE18      29.86F WCI  22
$$

  *****  WEATHER ACROSS SOUTH DAKOTA  *****

CITY           SKY/WX    TMP DP  RH WIND       PRES   REMARKS
SIOUX FALLS    CLOUDY    31  28  89 NE20G33   29.78S WCI  19
BROOKINGS      CLOUDY    26  24  92 N18       29.86F WCI  13
WATERTOWN      FOG       22  21  96 N20       29.90F VSB 1   WCI   7
HURON          CLOUDY    24  23  96 N15       29.93S WCI  11
SISSETON         N/A     24  23  96 N14       29.98S WCI  12
ABERDEEN       CLOUDY    24  22  91 NE17      30.01R WCI  11
MITCHELL       MIX PCPN  28  27  96 N16       29.89F WCI  16
PIERRE         CLOUDY    24  24 100 N7        29.97R FOG     WCI  16
MOBRIDGE       FOG       23  20  88 N8        29.95F VSB 1/4 WCI  14
RAPID CITY     FAIR      28  18  66 NW18      29.95S WCI  15
$$

  *****  SOME WEATHER IN NEARBY STATES *****

CITY           SKY/WX    TMP DP  RH WIND       PRES   REMARKS
GLASGOW MT     FAIR      13   9  84 SE12      29.95F WCI  -1
GREAT FALLS MT FAIR      32  14  47 SW13      29.92R WCI  22
CHEYENNE WY    FAIR      18  10  71 NW17G26   29.93R WCI   3
SCOTTSBLUFF NE FAIR      26  17  68 NW20      29.96R WCI  12
OMAHA NE       CLOUDY    37  35  92 N15G26    29.46F
DES MOINES IA  CLOUDY    39  38  96 N14       29.50F
DAVENPORT IA   FOG       47  45  93 E12       29.61F VSB 1/4
CHICAGO IL     FOG       46  45  96 SE7       29.73F VSB 1/4
EAU CLAIRE WI  CLOUDY    35  30  82 NE10      29.86F
LA CROSSE WI   CLOUDY    39  35  86 NE14G24   29.78F FOG
$$

  *****  SOME NATIONAL WEATHER *****

CITY           SKY/WX    TMP DP  RH WIND       PRES   REMARKS
LA GUARDIA NY  CLOUDY    38  34  85 NE8       30.13F
RALEIGH NC     FAIR      40  39  97 CALM      30.18F
ATLANTA GA     CLOUDY    50  42  74 SE6       30.11S
NEW ORLEANS LA MOCLDY    65  62  90 SE10      29.95F
OKLAHOMA CITY  FAIR      38  26  62 W21       29.77R
ALBUQUERQUE NM FAIR      28  10  46 N10       30.13R WCI  19
SALT LAKE CITY FAIR      24  16  71 SE8       30.30S WCI  15
LOS ANGELES CA FAIR      51  31  46 CALM      30.26F
BOISE ID       CLOUDY    36  31  82 SE16      30.16F
SEATTLE WA     LGT RAIN  42  39  89 S7        30.06R
$$

*** WEATHER ACROSS MANITOBA...SASKATCHEWAN AND ONTARIO ***
                ***ONTARIO***

CITY           SKY/WX    TMP DP  RH WIND       PRES   REMARKS
GERALDTON      FLURRIES   0  -6  78 E9        30.24F WCI -16
THUNDER BAY    CLOUDY    14   9  79 N3        30.20R
SIOUX LOOKOUT  FLURRIES   7   5  92 E6        30.14F WCI  -3
TORONTO        DRIZZLE   36  34  93 NE5       30.06R FOG
BIG TROUT LK   CLEAR    -18 -24  76 E5        30.38F WCI -31
PICKLE LAKE    NOT AVBL
DRYDEN         CLOUDY    10   9  92 NE8       30.10F WCI  -1
KENORA         CLOUDY    14  12  92 NE5       30.10S WCI   6
$$
                *** MANITOBA***

CITY           SKY/WX    TMP DP  RH WIND       PRES   REMARKS
BRANDON        FOG       23  21  93 SE5       30.07R VSB 1/8 WCI  17
DAUPHIN        CLOUDY    16  14  93 NE7       30.12R WCI   6
ISLAND LAKE    FLURRIES  -2  -8  78 E7        30.27F WCI -16
PILOT MOUND      N/A     21  19  93 SE1         N/A
THE PAS        PTCLDY    -6 -11  77 E7        30.19S WCI -20
THOMPSON       PTCLDY   -18 -24  76 NE8       30.31S WCI -37
WINNIPEG       CLOUDY    18  14  86 NE5       30.13S WCI  11
LYNN LAKE      CLEAR    -24 -29  76 NE3       30.25S
CHURCHILL      CLOUDY   -24 -29  76 SW3       30.55R
GILLAM         CLOUDY   -20 -26  76 E5        30.44S WCI -33
$$
                ***SASKATCHEWAN***

CITY           SKY/WX    TMP DP  RH WIND       PRES   REMARKS
ESTEVAN        CLEAR      1  -2  85 E6        29.99R FOG     WCI -10
KINDERSLEY     MOCLDY    19  14  79 SE10      29.76F WCI   8
LLOYDMINSTER   CLOUDY    21  19  93 SE18G28   29.72F FOG     WCI   6
PRINCE ALBERT  FLURRIES   9   7  92 E10       30.03F WCI  -6
REGINA         MOCLDY    10   9  92 E10       29.95S WCI  -3
YORKTON        FOG       23  23 100 S6        30.01S VSB 3/4 WCI  16
N. BATTLEFORD  CLOUDY    23  21  93 SE25      29.84F FOG     WCI   7
LA RONGE       FLURRIES   1   0  92 E12       30.10S WCI -15
SASKATOON      CLOUDY    21  19  93 E17       29.92S FOG     WCI   7
SWIFT CURRENT  MOCLDY    25  16  68 S17G23    29.82F WCI  11
$$
NOTE: THESE ARE AUTOMATED STATIONS WITH LIMITED QUALITY CONTROL
      "FAIR" INDICATES FEW OR NO CLOUDS BELOW 12,000 FEET WITH NO
      SIGNIFICANT WEATHER AND/OR OBSTRUCTIONS TO VISIBILITY.
      SKY/WX - SKY CONDITION AND SIGNIFICANT WEATHER.
      TMP - AIR TEMPERATURE.    DP   - DEWPOINT TEMPERATURE.
      RH  - RELATIVE HUMIDITY.  PRES - PRESSURE.
      HX  - HEAT INDEX.         WCI  - WIND CHILL INDEX.
$




USA.gov is the U.S. government's official web portal to all federal, state and local government web resources and services.